www.pogodaiklimat.ru
ПОГОДА в Картахене
Время
(UTC), дата
03 6.11
06 6.11
09 6.11
12 6.11
15 6.11
21 6.11
00 7.11
03 7.11
06 7.11
09 7.11
12 7.11
15 7.11
18 7.11
21 7.11
00 8.11
03 8.11
06 8.11
12 8.11
15 8.11
18 8.11
21 8.11
03 9.11
06 9.11
09 9.11
12 9.11
15 9.11
18 9.11
21 9.11
00 10.11
03 10.11
06 10.11
09 10.11
12 10.11
15 10.11
18 10.11
21 10.11
00 11.11
03 11.11
06 11.11
09 11.11
12 11.11
15 11.11
18 11.11
21 11.11
00 12.11
03 12.11
06 12.11
12 12.11
15 12.11
18 12.11
21 12.11
00 13.11
Ветер
(напр.,м/с)
Видим. Явления Облачность Т
(С)
Тd
(С)
f
(%)
Тe
(С)
Тes
(С)
Комфортность P
(гПа)
Po
(гПа)
Тmin
(С)
Tmax
(С)
R
(мм)
R24
(мм)
S
(см)
СВ 3 10 км мгла 5/0
[Ac lent Cs]
+27.5 +26.3 93 +42 +42 опасность
перегрева
1009.1 1008.9
нст 1 10 км мгла 4/1 400 м
[St Ci fib]
+26.7 +26.3 98 +41 +41 опасность
перегрева
1008.5 1008.3
ЮЗ 2 7000 м туман на расстоянии 4/0
[Ci fib]
+27.2 +26.5 96 +42 +42 опасность
перегрева
1007.0 1006.8
В 2 7000 м мгла 4/0
[Ci fib]
+27.2 +26.0 93 +41 +41 опасность
перегрева
1009.1 1008.9
В 2 14 км мгла 10/4 540 м
[Cu Sc Ac trans Ci fib]
+31.8 +26.5 74 +49 +52 опасность
перегрева
1011.1 1010.9
С 3 14 км мгла 5/1 500 м
[Cu Sc Ci fib]
+30.0 +25.7 78 +45 +47 опасность
перегрева
1005.7 1005.5
С 5 12 км мгла 9/4 450 м
[Sc diur, vesp Ac As Cs]
+28.6 +25.9 85 +43 +43 опасность
перегрева
1007.4 1007.2 +31.6
С 3 12 км мгла 8/3 500 м
[Sc diur, vesp Ac As Cs]
+28.0 +26.1 89 +42 +42 опасность
перегрева
1009.3 1009.1
СВ 3 12 км мгла 6/1 500 м
[Cu hum Ac As Ci fib]
+27.6 +26.3 93 +42 +42 опасность
перегрева
1007.3 1007.1
В 2 12 км мгла 4/1 500 м
[Cu hum]
+26.4 +26.1 98 +39 +39 очень
душно
1006.2 1006.0
С 1 11 км мгла 5/1 450 м
[Sc diur, vesp Ci fib]
+26.9 +24.8 88 +38 +39 очень
душно
1007.4 1007.2 +26.0
В 1 14 км мгла 4/1 500 м
[Cu hum Cs]
+32.2 +26.4 72 +49 +61 опасность
перегрева
1008.6 1008.4
С 6 15 км 8/4 450 м
[Cu Sc Ci fib]
+32.2 +25.0 66 +46 +49 опасность
перегрева
1006.7 1006.5
С 5 15 км мгла 8/1 450 м
[Cu hum Ci fib]
+29.7 +26.1 81 +45 +46 опасность
перегрева
1004.4 1004.2
СВ 4 14 км мгла 5/1 600 м
[Cu hum Ci fib]
+28.2 +26.1 88 +42 +42 опасность
перегрева
1005.8 1005.6 +33.6
СВ 2 14 км мгла 6/3 500 м
[Cu hum Ci fib]
+27.6 +26.5 94 +42 +42 опасность
перегрева
1006.9 1006.7
С 2 14 км мгла 4/0
[Ci fib]
+27.2 +26.0 93 +41 +41 опасность
перегрева
1005.7 1005.5
СВ 2 9000 м туман на расстоянии 6/0
[Ci fib]
+26.7 +25.6 94 +39 +40 очень
душно
1005.9 1005.7 +26.2
В 2 13 км мгла 6/0
[Ci fib]
+31.5 +26.2 74 +48 +59 опасность
перегрева
1007.0 1006.8
С 5 14 км мгла 8/3 450 м
[Cu hum Ci fib]
+32.2 +26.1 70 +48 +53 опасность
перегрева
1004.5 1004.3
С 5 14 км мгла 5/3 500 м
[Sc diur, vesp Ci fib]
+32.9 +25.0 63 +46 +48 опасность
перегрева
1003.1 1002.9
С 3 14 км 5/1 500 м
[Sc diur, vesp Ci fib]
+27.7 +25.4 87 +40 +40 очень
душно
1007.1 1006.9
С 2 12 км мгла 8/1 450 м
[Sc diur, vesp Cs]
+27.1 +25.5 91 +40 +40 очень
душно
1005.2 1005.0
СВ 1 12 км мгла 6/1 450 м
[Sc diur, vesp Ci fib]
+26.4 +25.3 94 +38 +38 очень
душно
1005.0 1004.8
С 2 10 км мгла 9/3 450 м
[Sc diur, vesp Ac trans Ci fib]
+26.7 +26.3 98 +41 +41 опасность
перегрева
1006.5 1006.3 +25.9
СЗ 3 9000 м мгла 9/3 450 м
[Sc diur, vesp Ac trans Cs]
+30.0 +26.3 81 +46 +50 опасность
перегрева
1008.0 1007.8
З 5 8000 м осадки на расстоянии 10/5 450 м
[Cb cap As op Cs]
+31.6 +26.7 75 +49 +51 опасность
перегрева
1006.6 1006.4
З 3 1000 м гроза, ливневой дождь 10/9 300 м
[Cb cap As op]
+27.6 +26.5 94 +42 +43 опасность
перегрева
1006.1 1005.9
З 2 10 км мгла {гроза} 10/6 400 м
[Frnb As op Cs]
+26.5 +26.1 98 +40 +40 очень
душно
1008.2 1008.0 +32.4 15
З 2 12 км мгла 10/6 400 м
[Frnb Cs]
+27.6 +26.3 93 +42 +42 опасность
перегрева
1009.9 1009.7
СЗ 1 12 км мгла 8/0
[Ac lent Cs]
+27.2 +25.9 93 +41 +41 опасность
перегрева
1008.8 1008.6
В 2 8000 м туман на расстоянии 8/1 450 м
[Sc Cs]
+26.2 +25.7 97 +39 +39 очень
душно
1008.3 1008.1
ЮЗ 2 6000 м мгла 5/0
[Ci fib]
+26.6 +25.3 93 +39 +39 очень
душно
1009.5 1009.3 +25.5 15
Ю 2 12 км мгла 10/9 450 м
[Cu med, cong Ci fib]
+30.4 +26.7 81 +47 +48 опасность
перегрева
1011.1 1010.9
З 5 12 км мгла {дождь} 9/5 600 м
[Cu hum Cs]
+31.0 +26.5 77 +47 +51 опасность
перегрева
1009.1 1008.9 1
З 5 15 км мгла 9/4 600 м
[Cu hum Ci fib]
+30.0 +26.3 81 +46 +47 опасность
перегрева
1007.1 1006.9
З 2 6000 м слаб. морось {дождь} 10/4 360 м
[Frnb As op Cs]
+27.0 +26.9 99 +42 +42 опасность
перегрева
1008.6 1008.4 +31.0 18
С 2 10 км мгла 9/3 450 м
[Frnb As op Cs]
+27.0 +27.0 100 +42 +42 опасность
перегрева
1010.0 1009.8
З 2 10 км мгла 9/3 450 м
[Sc diur, vesp Ac As Cs]
+26.3 +26.2 99 +39 +39 очень
душно
1009.2 1009.0
С 3 10 км мгла 9/3 450 м
[Sc diur, vesp Ac As Cs]
+26.7 +26.6 99 +41 +41 опасность
перегрева
1007.6 1007.4
ЮВ 1 10 км мгла 9/6 360 м
[Frnb As op Cs]
+27.4 +25.9 92 +41 +41 опасность
перегрева
1009.2 1009.0 +24.4 20
Ю 2 16 км 8/1 450 м
[Cu Sc As op Cs]
+29.4 +25.7 81 +44 +51 опасность
перегрева
1010.1 1009.9
ЮЗ 3 15 км мгла 10/5 450 м
[Cu Sc Ac As Cs]
+29.8 +26.6 83 +46 +49 опасность
перегрева
1008.3 1008.1
З 3 15 км мгла 10/3 450 м
[Cu med, cong Ac As Cs]
+29.1 +26.4 85 +44 +46 опасность
перегрева
1006.7 1006.5
С 3 15 км мгла 10/5 450 м
[Cu Sc Ac trans Cs]
+28.2 +25.8 87 +42 +42 опасность
перегрева
1007.6 1007.4 +30.4
СВ 3 15 км мгла 5/1 600 м
[Cu hum Ci fib]
+27.0 +25.5 92 +40 +40 очень
душно
1010.0 1009.8
С 3 14 км мгла 8/3 600 м
[Cu hum Ac trans Ci fib]
+27.0 +25.9 94 +40 +40 очень
душно
1008.4 1008.2
В 1 10 км мгла 4/3 450 м
[Cu med, cong Ci fib]
+27.1 +25.8 93 +40 +41 очень
душно
1007.8 1007.6 +26.6 1
В 2 14 км мгла 5/3 500 м
[Cu Sc Ci fib]
+30.6 +25.8 76 +46 +54 опасность
перегрева
1009.7 1009.5
В 2 14 км мгла 9/3 500 м
[Sc diur, vesp Ac trans Cs]
+31.7 +25.4 69 +46 +52 опасность
перегрева
1007.5 1007.3
С 5 12 км мгла 9/4 450 м
[Sc diur, vesp Ac trans Cs]
+29.4 +26.5 84 +45 +46 опасность
перегрева
1006.2 1006.0
СВ 2 12 км мгла 9/3 450 м
[Sc diur, vesp Ac As Cs]
+28.1 +26.0 88 +42 +42 опасность
перегрева
1007.8 1007.6 +32.5
Местоположение метеостанции Картахена (Колумбия): широта 10.45 долгота -75.51 высота над уровнем моря 12 м.
В архиве по умолчанию представлена погода в Картахене за последнюю неделю. Архивные данные за месяц целиком и за предыдущие месяцы, начиная с января 2011 года, Вы можете получить, выбрав интересующий диапазон дат из раскрывающегося списка и нажав кнопку "Найти!".
*Определитесь, кто Вы:
Внимание! Время в таблицах - всемирное. Для получения местного времени необходимо прибавить поправку, которая равна -5 ч.
Смотрите также архив погоды в соседних городах и на ближайших метеорологических станциях:
Партнеры нашего сайта:      
Пояснения к столбцам:
  • Ветер - указаны скорость ветра в м/с - средняя за 10 мин, порывы в срок и между сроками (в фигурных скобках) и направление, откуда дует ветер: С - северный,
  • СВ - северо-восточный, В - восточный, ЮВ - юго-восточный, Ю - южный, ЮЗ - юго-западный, З - западный, СЗ - северо-западный.
  • Видимость - горизонтальная дальность видимости в метрах или километрах. При видимости от 1 до 10 км при отсутствии осадков обычно наблюдается дымка, при ухудшении видимости до 1 км и менее - туман. В сухую погоду видимость может ухудшаться дымом, пылью или мглою.
  • Явления - указаны атмосферные явления, наблюдавшиеся в срок или в последний час перед сроком; фигурными скобками обозначены явления, наблюдавшиеся между сроками (за 1-3 часа до срока); квадратными скобками обозначены град или гололедные отложения с указанием их диаметра в мм.
  • Облачность - указаны через наклонную черту общая и нижняя облачность в баллах и высота нижней границы облаков в метрах; квадратными скобками обозначены формы облаков: Ci - перистые, Cs - перисто-слоистые, Cc - перисто-кучевые, Ac - высококучевые, As - высокослоистые, Sc - слоисто-кучевые, Ns - слоисто-дождевые, Cu - кучевые, Cb - кучево-дождевые. Подробнее классификацию облаков см. в Атласе облаков (PDF).
  • T - Температура воздуха - температура, измеренная на высоте 2 м над землей.
  • Td - Температура точки росы - температура, при понижении до которой содержащийся в воздухе водяной пар достигнет насыщения.
  • f - Относительная влажность воздуха - влажноcть воздуха, измеренная на высоте 2 м над землей.
  • Te - Эффективная температура - температура, которую ощущает одетый по сезону человек в тени. Характеристика душности погоды. При расчете учитывается влияние влажности воздуха и скорости ветра на теплоощущения человека.
  • Tes - Эффективная температура на солнце - температура, которую ощущает человек, с поправкой на солнечный нагрев. Характеристика знойности погоды. Зависит от высоты солнца над горизонтом, облачности и скорости ветра. Ночью, в пасмурную погоду, а также при ветре 12 м/с и более поправка равна нулю.
  • P - Атмосферное давление - приведенное к уровню моря атмосферное давление.
  • Po - Атмосферное давление - измеренное на уровне метеостанции атмосферное давление.
  • Tmin - Минимальная температура - минимум температуры воздуха на высоте 2 м над землей.
  • Tmax - Максимальная температура - максимум температуры воздуха на высоте 2 м над землей.
  • R - Количество осадков - Количество выпавших осадков за период времени, мм. При наведении курсора мыши на число - период времени, за который выпало указанное количество осадков.
  • R24 - Количество осадков - Количество выпавших осадков за 24 часа, мм.
  • S - Снежный покров - Высота снежного покрова, см. При наведении курсора мыши на число - состояние снежного покрова и степень покрытия местности в баллах.